STARLINK-34367

Last updated on Thu Jul 03 2025 00:02:07 GMT+0000 (Coordinated Universal Time)

1 64452U 25130Q 25183.58335648 -.00455352 00000+0 -32364-2 0 9998 2 64452 53.1562 179.7493 0001051 67.1687 65.0039 15.74466633 3514
UTC large
Height (km)
Speed (km/s)
/
Latitude / Longitude
Inclination (degrees)
Orbital Period (minutes)
Azimuth
Elevation
Range (km)
Doppler Factor

Next 0 passes for location: London (51.5072 / 0.1276)

Sorry there are no passes over London.